Regional Weather Roundup
Issued by NWS Newport/Morehead, NC

Current Version | Previous Version | Text Only | Print | Product List | Glossary On
Versions: 1 2 3 4 5 6 7 8 9 10 11 12 13 14 15 16 17 18 19 20 21 22 23 24 25 26 27 28 29 30 31 32 33 34 35 36 37 38 39 40 41 42 43 44 45 46 47 48 49 50
000
ASUS42 KMHX 230410
RWRMHX
WEATHER ROUNDUP FOR EASTERN NORTH CAROLINA
NATIONAL WEATHER SERVICE NEWPORT/MOREHEAD CITY NC
1200 AM EDT WED APR 23 2014

NOTE: "FAIR" INDICATES FEW OR NO CLOUDS BELOW 12,000 FEET
WITH NO SIGNIFICANT WEATHER AND/OR OBSTRUCTIONS TO VISIBILITY

NCZ015>017-031-032-045>047-102-103-230500-
NORTH COAST

CITY           SKY/WX    TMP DP  RH WIND       PRES   REMARKS
EDENTON        CLOUDY    68  55  63 W3        29.65S
ELIZABETH CITY CLOUDY    63  56  78 SW8       29.64S
KITTY HAWK     CLOUDY    66  51  57 SW6       29.63S
MANTEO         CLOUDY    63  52  66 W6        29.64F

$$

NCZ045>047-081-094-103-104-230500-
CENTRAL COAST

CITY           SKY/WX    TMP DP  RH WIND       PRES   REMARKS
FRISCO         MOCLDY    61  32  33 W14G21    29.67S
SWANQUARTER      N/A     64 N/A N/A SW5       29.62F

$$

NCZ095-097-098-100-101-230500-
SOUTHERN COAST

CITY           SKY/WX    TMP DP  RH WIND       PRES   REMARKS
BEAUFORT       CLOUDY    63  59  87 SW6       29.69S
CEDAR ISLAND     N/A     64 N/A N/A SW7G15    29.71S
JACKSONVILLE   CLOUDY    67  60  78 W6        29.70S
NEWPORT          N/A     66  59  77 W3          N/A
PINEY ISLAND   CLOUDY    67  59  75 SW8       29.67S
WILMINGTON     CLOUDY    68  58  70 W8        29.73S


$$

NCZ011>013-027>030-043-044-078>080-089-090>093-098-230500-
COASTAL PLAIN

CITY           SKY/WX    TMP DP  RH WIND       PRES   REMARKS
AHOSKIE        MOCLDY    61  54  76 CALM      29.66S
CLINTON        CLOUDY    64  59  83 SW5       29.72S
ELIZABETHTOWN  CLOUDY    64  58  80 W3        29.74S
GOLDSBORO      MOCLDY    66  57  73 SW6       29.68S
GREENVILLE     CLOUDY    64  55  72 W5        29.70S
HAVELOCK       CLOUDY    65  57  75 W7        29.70S
KENANSVILLE    CLOUDY    65  54  66 SW6       29.72S
KINSTON        CLOUDY    69  55  60 SW5       29.69S
NEW BERN       CLOUDY    69  56  62 SW5       29.69F
RICHLANDS      CLOUDY    66  66 100 W3        29.71S
ROANOKE RAPIDS NOT AVBL
ROCKY MOUNT    MOCLDY    67  54  63 W6        29.68S
WASHINGTON     CLOUDY    66  57  72 SW3       29.67S
WHITEVILLE     CLOUDY    66  58  76 CALM      29.75S

$$

AMZ130-135-150-152-154-156-158-170-250-252-270-ANZ085-086-088-633-658-670-230500-
MARINE OBSERVATIONS

STATION/POSITION TIME  TEMP    WIND        PRES    WAVE   SWELL
                       AIR SEA DIR/SP/G            HT/PER HT/PER
                 (UTC) (F)     (DEG/KT/KT) (MB)    (FT/S) (FT/S)
CHESAPEAKE LIGHT 0300   66      60/  5/  5 1003.5
BUOY 44014       0400   53 49  280/  6/ 10 1002.8    4/ 9   3/ 9
DUCK             0400   65 48  240/  9/ 11 1002.5
2E DUCK          0400      50                N/A     3/ 9   2/11
OREGON INLET     0400   62 60  210/ 10/ 11 1003.7
BUOY 44095       0400      51                N/A     4/ 8   2/11
HATTERAS CG      0400   62 57  240/ 11/ 16 1004.7
DIAMOND BUOY     0400   72 76  250/ 23/ 27 1003.7    6/ 8   3/ 8
CAPE LOOKOUT     0300   66     230/ 13/ 17 1005.4
BEAUFORT LAB     0400   62 61  250/  8/ 14 1004.8
30 SE NEW RIVER  0400   68 69  260/ 17/ 21 1006.4    6/ 6   2/ 9
5 SE WRIGHTSVILL 0300   63 60  270/  8/ 10 1006.7
FRYING PAN BUOY  0400   68 67  270/ 19/ 23 1006.7    6/ 5   2/ 9
BUOY 41001       NOT AVBL
BUOY 41002       NOT AVBL
BUOY 41004       0400   68 70  250/ 14/ 16 1008.5    4/ 9   2/ 9

$$



USA.gov is the U.S. government's official web portal to all federal, state and local government web resources and services.